Zurück zum Katalog

FENGYUN 1C DEB

AktivSSO
NORAD 31462·DEBRIS·🇨🇳 China

Gestartet May 10, 1999 von Taiyuan Satellite Launch Center

Loading…

Nächste Überflüge (nächste 24 Stunden)

TLE

AlterndSource: Space-Track

Epoche: Sep 11, 2026, 06:37 UTC

1 31462U 99025BVA 26254.27618351  .00000326  00000-0  19536-3 0  9991
2 31462  98.6772 269.5714 0032986 147.0405 274.6630 14.13304478997053

Verfolge FENGYUN 1C DEB in Echtzeit mit AllMySat

Download on the App Store